| time (UTC) | temp F | wind direction | speed knots | gust knots | rain 1hr in | rain 24hr in | rain mn in | humidity % | barometer mb |
| 20260506150037 | 52 | 336 | 0.9 | 7.8 | 0.00 | 0.00 | 0.00 | 82 | 1016.6 |
| 20260506145520 | 52 | 35 | 0.0 | 8.7 | 0.00 | 0.00 | 0.00 | 84 | 1016.2 |
| 20260506145019 | 52 | 360 | 2.6 | 8.7 | 0.00 | 0.00 | 0.00 | 84 | 1014.7 |
| 20260506144535 | 52 | 355 | 2.6 | 9.6 | 0.00 | 0.00 | 0.00 | 85 | 1014.4 |
| 20260506144018 | 51 | 330 | 3.5 | 9.6 | 0.00 | 0.00 | 0.00 | 85 | 1014.9 |
| 20260506143520 | 51 | 0 | 2.6 | 8.7 | 0.00 | 0.00 | 0.00 | 85 | 1014.9 |
| 20260506143034 | 51 | 360 | 3.5 | 7.8 | 0.00 | 0.00 | 0.00 | 86 | 1015.3 |
| 20260506142519 | 51 | 325 | 0.9 | 7.0 | 0.00 | 0.00 | 0.00 | 86 | 1015.2 |
| 20260506142016 | 51 | 355 | 1.7 | 7.0 | 0.00 | 0.00 | 0.00 | 86 | 1015.1 |
| 20260506141541 | 51 | 298 | 1.7 | 7.0 | 0.00 | 0.00 | 0.00 | 86 | 1015.0 |
| 20260506141020 | 51 | 340 | 1.7 | 5.2 | 0.00 | 0.00 | 0.00 | 86 | 1015.1 |
| 20260506140516 | 51 | 0 | 0.9 | 5.2 | 0.00 | 0.00 | 0.00 | 86 | 1015.2 |
| 20260506140045 | 51 | 0 | 0.9 | 4.3 | 0.00 | 0.00 | 0.00 | 86 | 1015.4 |
| 20260506135521 | 51 | 302 | 0.9 | 8.7 | 0.00 | 0.00 | 0.00 | 86 | 1015.3 |
| 20260506135027 | 51 | 310 | 0.9 | 8.7 | 0.00 | 0.00 | 0.00 | 86 | 1015.0 |
| 20260506134606 | 51 | 254 | 3.5 | 8.7 | 0.00 | 0.00 | 0.00 | 86 | 1014.7 |
| 20260506134020 | 51 | 355 | 1.7 | 7.8 | 0.00 | 0.00 | 0.00 | 86 | 1014.5 |
| 20260506133520 | 51 | 338 | 2.6 | 7.8 | 0.00 | 0.00 | 0.00 | 87 | 1014.1 |
| 20260506133035 | 51 | 333 | 3.5 | 8.7 | 0.00 | 0.00 | 0.00 | 87 | 1013.9 |
| 20260506132520 | 51 | 327 | 1.7 | 8.7 | 0.00 | 0.00 | 0.00 | 86 | 1014.0 |
| 20260506132020 | 51 | 318 | 1.7 | 7.8 | 0.00 | 0.00 | 0.00 | 86 | 1014.1 |
| 20260506131539 | 51 | 338 | 1.7 | 7.0 | 0.00 | 0.00 | 0.00 | 86 | 1014.2 |
| 20260506131017 | 51 | 328 | 1.7 | 5.2 | 0.00 | 0.00 | 0.00 | 86 | 1014.2 |
| 20260506130523 | 51 | 0 | 0.9 | 8.7 | 0.00 | 0.00 | 0.00 | 86 | 1014.1 |
| 20260506130041 | 51 | 321 | 0.9 | 8.7 | 0.00 | 0.00 | 0.00 | 86 | 1013.8 |
| 20260506125519 | 51 | 300 | 2.6 | 8.7 | 0.00 | 0.00 | 0.00 | 86 | 1013.9 |
| 20260506125016 | 51 | 312 | 3.5 | 7.8 | 0.00 | 0.00 | 0.00 | 86 | 1013.6 |
| 20260506124541 | 50 | 325 | 1.7 | 7.8 | 0.00 | 0.00 | 0.00 | 86 | 1013.9 |
| 20260506124016 | 50 | 315 | 2.6 | 7.8 | 0.00 | 0.00 | 0.00 | 86 | 1013.6 |
| 20260506123520 | 51 | 339 | 0.0 | 7.0 | 0.00 | 0.00 | 0.00 | 86 | 1013.7 |
| 20260506123045 | 51 | 0 | 0.9 | 5.2 | 0.00 | 0.00 | 0.00 | 86 | 1013.7 |
| 20260506122520 | 50 | 0 | 0.9 | 7.8 | 0.00 | 0.00 | 0.00 | 86 | 1013.7 |
| 20260506122020 | 50 | 325 | 1.7 | 7.8 | 0.00 | 0.00 | 0.00 | 86 | 1013.5 |
| 20260506121538 | 50 | 288 | 2.6 | 8.7 | 0.00 | 0.00 | 0.00 | 86 | 1013.5 |
| 20260506121020 | 50 | 310 | 1.7 | 8.7 | 0.00 | 0.00 | 0.00 | 86 | 1013.6 |
| 20260506120517 | 50 | 302 | 2.6 | 8.7 | 0.00 | 0.00 | 0.00 | 86 | 1013.5 |
| 20260506120034 | 50 | 0 | 2.6 | 7.8 | 0.00 | 0.00 | 0.00 | 86 | 1013.4 |
| 20260506115517 | 50 | 288 | 0.0 | 8.7 | 0.00 | 0.00 | 0.00 | 86 | 1013.4 |
| 20260506115016 | 50 | 0 | 0.9 | 8.7 | 0.00 | 0.00 | 0.00 | 86 | 1013.6 |
| 20260506114547 | 50 | 0 | 1.7 | 6.1 | 0.00 | 0.00 | 0.00 | 86 | 1013.3 |
| 20260506114016 | 50 | 0 | 0.9 | 6.1 | 0.00 | 0.00 | 0.00 | 85 | 1013.3 |
| 20260506113516 | 51 | 314 | 1.7 | 6.1 | 0.00 | 0.00 | 0.00 | 85 | 1013.2 |
| 20260506113042 | 51 | 296 | 1.7 | 6.1 | 0.00 | 0.00 | 0.00 | 85 | 1013.1 |
| 20260506112519 | 51 | 298 | 0.9 | 7.8 | 0.00 | 0.00 | 0.00 | 84 | 1012.9 |
| 20260506112016 | 51 | 257 | 2.6 | 10.4 | 0.00 | 0.00 | 0.00 | 84 | 1012.9 |
| 20260506111542 | 51 | 336 | 1.7 | 10.4 | 0.00 | 0.00 | 0.00 | 83 | 1012.9 |
| 20260506111020 | 51 | 300 | 3.5 | 11.3 | 0.00 | 0.00 | 0.00 | 83 | 1012.7 |
| 20260506110523 | 52 | 314 | 1.7 | 11.3 | 0.00 | 0.00 | 0.00 | 82 | 1012.7 |
| 20260506110036 | 52 | 277 | 2.6 | 8.7 | 0.00 | 0.00 | 0.00 | 81 | 1012.6 |
| 20260506105520 | 53 | 260 | 2.6 | 8.7 | 0.00 | 0.00 | 0.00 | 80 | 1012.5 |
| 20260506105020 | 53 | 355 | 2.6 | 7.8 | 0.00 | 0.00 | 0.00 | 79 | 1012.3 |
| 20260506104536 | 53 | 324 | 3.5 | 8.7 | 0.00 | 0.00 | 0.00 | 79 | 1012.2 |
| 20260506104019 | 53 | 275 | 3.5 | 9.6 | 0.00 | 0.00 | 0.00 | 78 | 1012.1 |
| 20260506103520 | 53 | 309 | 2.6 | 9.6 | 0.00 | 0.00 | 0.00 | 78 | 1012.1 |
| 20260506103041 | 53 | 262 | 3.5 | 8.7 | 0.00 | 0.00 | 0.00 | 78 | 1012.3 |
| 20260506102520 | 53 | 306 | 1.7 | 9.6 | 0.00 | 0.00 | 0.00 | 77 | 1012.3 |
| 20260506102020 | 54 | 253 | 1.7 | 9.6 | 0.00 | 0.00 | 0.00 | 77 | 1012.3 |
| 20260506101534 | 54 | 293 | 2.6 | 9.6 | 0.00 | 0.00 | 0.00 | 77 | 1012.2 |
| 20260506101016 | 54 | 257 | 3.5 | 8.7 | 0.00 | 0.00 | 0.00 | 77 | 1012.0 |
| 20260506100516 | 54 | 0 | 2.6 | 8.7 | 0.00 | 0.00 | 0.00 | 77 | 1011.9 |
| 20260506100040 | 54 | 0 | 3.5 | 8.7 | 0.00 | 0.00 | 0.00 | 77 | 1012.0 |
| 20260506095522 | 54 | 0 | 2.6 | 7.8 | 0.00 | 0.00 | 0.00 | 77 | 1011.8 |
| 20260506095016 | 54 | 360 | 1.7 | 7.8 | 0.00 | 0.00 | 0.00 | 77 | 1011.6 |
| 20260506094536 | 54 | 291 | 1.7 | 4.3 | 0.00 | 0.00 | 0.00 | 77 | 1011.5 |
| 20260506094020 | 54 | 307 | 0.9 | 7.8 | 0.00 | 0.00 | 0.00 | 77 | 1011.6 |
| 20260506093520 | 54 | 299 | 0.9 | 7.8 | 0.00 | 0.00 | 0.00 | 77 | 1011.3 |
| 20260506093036 | 54 | 315 | 1.7 | 6.1 | 0.00 | 0.00 | 0.00 | 77 | 1011.2 |
| 20260506092520 | 54 | 315 | 0.9 | 7.0 | 0.00 | 0.00 | 0.00 | 78 | 1011.2 |
| 20260506092020 | 55 | 0 | 0.0 | 7.0 | 0.00 | 0.00 | 0.00 | 78 | 1011.0 |
| 20260506091535 | 55 | 340 | 1.7 | 7.0 | 0.00 | 0.00 | 0.00 | 78 | 1011.0 |
| 20260506091016 | 55 | 323 | 0.9 | 7.0 | 0.00 | 0.00 | 0.00 | 78 | 1010.9 |
| 20260506090519 | 55 | 0 | 0.9 | 7.0 | 0.00 | 0.00 | 0.00 | 78 | 1010.9 |
| 20260506090034 | 55 | 290 | 2.6 | 7.0 | 0.00 | 0.00 | 0.00 | 78 | 1010.8 |
| 20260506085519 | 55 | 289 | 1.7 | 8.7 | 0.00 | 0.00 | 0.00 | 78 | 1010.8 |
| 20260506085019 | 55 | 290 | 1.7 | 8.7 | 0.00 | 0.00 | 0.00 | 78 | 1010.8 |
| 20260506084534 | 55 | 259 | 1.7 | 7.8 | 0.00 | 0.00 | 0.00 | 78 | 1010.6 |
| 20260506084022 | 55 | 263 | 0.9 | 6.1 | 0.00 | 0.00 | 0.00 | 79 | 1010.7 |
| 20260506083520 | 55 | 265 | 0.0 | 8.7 | 0.00 | 0.00 | 0.00 | 79 | 1010.5 |
| 20260506083051 | 55 | 352 | 2.6 | 8.7 | 0.00 | 0.00 | 0.00 | 79 | 1010.5 |
| 20260506082520 | 55 | 283 | 3.5 | 10.4 | 0.00 | 0.00 | 0.00 | 78 | 1010.6 |
| 20260506082020 | 55 | 275 | 1.7 | 10.4 | 0.00 | 0.00 | 0.00 | 79 | 1010.6 |
| 20260506081545 | 55 | 273 | 1.7 | 5.2 | 0.00 | 0.00 | 0.00 | 79 | 1010.7 |
| 20260506081023 | 55 | 307 | 1.7 | 5.2 | 0.00 | 0.00 | 0.00 | 79 | 1010.7 |
| 20260506080520 | 55 | 313 | 0.0 | 3.5 | 0.00 | 0.00 | 0.00 | 79 | 1010.7 |
| 20260506073522 | 56 | 0 | 0.9 | 5.2 | 0.00 | 0.00 | 0.00 | 80 | 1010.6 |
| 20260506073036 | 56 | 0 | 0.0 | 4.3 | 0.00 | 0.00 | 0.00 | 80 | 1010.5 |
| 20260506072525 | 56 | 328 | 0.9 | 7.0 | 0.00 | 0.00 | 0.00 | 80 | 1010.5 |
| 20260506072021 | 55 | 333 | 1.7 | 8.7 | 0.00 | 0.00 | 0.00 | 80 | 1010.3 |
| 20260506071543 | 55 | 336 | 3.5 | 8.7 | 0.00 | 0.00 | 0.00 | 80 | 1009.8 |
| 20260506071017 | 56 | 360 | 3.5 | 8.7 | 0.00 | 0.00 | 0.00 | 80 | 1009.6 |
| 20260506070519 | 56 | 360 | 3.5 | 8.7 | 0.00 | 0.00 | 0.00 | 80 | 1009.7 |
| 20260506062020 | 56 | 333 | 4.3 | 9.6 | 0.00 | 0.00 | 0.00 | 79 | 1010.2 |
| 20260506061539 | 56 | 360 | 2.6 | 9.6 | 0.00 | 0.00 | 0.00 | 80 | 1010.2 |
| 20260506061017 | 56 | 346 | 5.2 | 9.6 | 0.00 | 0.00 | 0.00 | 79 | 1010.2 |
| 20260506060520 | 56 | 327 | 1.7 | 7.0 | 0.00 | 0.00 | 0.00 | 80 | 1010.1 |
| 20260506051020 | 58 | 0 | 1.7 | 7.8 | 0.00 | 0.00 | 0.00 | 81 | 1010.3 |
| 20260506050519 | 58 | 0 | 0.9 | 7.8 | 0.00 | 0.00 | 0.00 | 81 | 1010.4 |
| 20260506045016 | 58 | 252 | 1.7 | 7.8 | 0.00 | 0.00 | 0.00 | 81 | 1010.2 |
| 20260506044541 | 58 | 296 | 1.7 | 7.8 | 0.00 | 0.00 | 0.00 | 81 | 1010.2 |
| 20260506044020 | 58 | 304 | 0.9 | 6.1 | 0.00 | 0.00 | 0.00 | 82 | 1010.1 |
| 20260506043516 | 58 | 335 | 0.9 | 6.1 | 0.00 | 0.00 | 0.00 | 82 | 1010.2 |
| 20260506043036 | 59 | 267 | 0.9 | 6.1 | 0.00 | 0.00 | 0.00 | 82 | 1010.1 |
| 20260506042517 | 59 | 338 | 1.7 | 5.2 | 0.00 | 0.00 | 0.00 | 82 | 1010.1 |
| 20260506042100 | 59 | 270 | 0.9 | 7.8 | 0.00 | 0.00 | 0.00 | 81 | 1010.3 |
| 20260506041538 | 59 | 272 | 2.6 | 7.8 | 0.00 | 0.00 | 0.00 | 81 | 1010.3 |
| 20260506041016 | 59 | 0 | 0.0 | 6.1 | 0.00 | 0.00 | 0.00 | 82 | 1010.1 |
| 20260506040521 | 59 | 281 | 0.9 | 7.0 | 0.00 | 0.00 | 0.00 | 82 | 1010.1 |
| 20260506040035 | 59 | 337 | 0.9 | 7.0 | 0.00 | 0.00 | 0.00 | 82 | 1010.2 |
| 20260506035517 | 59 | 284 | 0.9 | 7.8 | 0.00 | 0.00 | 0.00 | 82 | 1010.1 |
| 20260506035017 | 59 | 277 | 1.7 | 9.6 | 0.00 | 0.00 | 0.00 | 81 | 1010.0 |
| 20260506034542 | 60 | 0 | 1.7 | 9.6 | 0.00 | 0.00 | 0.00 | 81 | 1009.9 |
| 20260506034020 | 60 | 279 | 1.7 | 7.0 | 0.00 | 0.00 | 0.00 | 81 | 1010.0 |
| 20260506033516 | 60 | 0 | 1.7 | 7.8 | 0.00 | 0.00 | 0.00 | 81 | 1009.9 |
| 20260506033038 | 60 | 254 | 2.6 | 8.7 | 0.00 | 0.00 | 0.00 | 81 | 1009.8 |
| 20260506032519 | 60 | 259 | 2.6 | 12.2 | 0.00 | 0.00 | 0.00 | 81 | 1009.6 |
| 20260506032017 | 60 | 303 | 3.5 | 12.2 | 0.00 | 0.00 | 0.00 | 80 | 1009.4 |
| 20260506031539 | 61 | 309 | 3.5 | 11.3 | 0.00 | 0.00 | 0.00 | 80 | 1009.4 |
| 20260506031023 | 61 | 22 | 3.5 | 11.3 | 0.00 | 0.00 | 0.00 | 80 | 1009.3 |
| 20260506030520 | 61 | 336 | 2.6 | 9.6 | 0.00 | 0.00 | 0.00 | 81 | 1009.2 |
| 20260506030036 | 61 | 299 | 3.5 | 9.6 | 0.00 | 0.00 | 0.00 | 80 | 1009.3 |
| 20260506025522 | 61 | 338 | 1.7 | 7.8 | 0.00 | 0.00 | 0.00 | 80 | 1009.2 |
| 20260506025018 | 62 | 0 | 1.7 | 7.8 | 0.00 | 0.00 | 0.00 | 80 | 1009.2 |
| 20260506024539 | 62 | 319 | 1.7 | 7.8 | 0.00 | 0.00 | 0.00 | 80 | 1009.2 |
| 20260506024018 | 62 | 335 | 2.6 | 7.8 | 0.00 | 0.00 | 0.00 | 80 | 1009.0 |
| 20260506023520 | 62 | 328 | 1.7 | 8.7 | 0.00 | 0.00 | 0.00 | 80 | 1009.0 |
| 20260506023041 | 62 | 0 | 1.7 | 8.7 | 0.00 | 0.00 | 0.00 | 80 | 1008.8 |
| 20260506022523 | 62 | 330 | 1.7 | 8.7 | 0.00 | 0.00 | 0.00 | 79 | 1008.7 |
| 20260506022019 | 63 | 0 | 1.7 | 8.7 | 0.00 | 0.00 | 0.00 | 79 | 1008.7 |
| 20260506021536 | 63 | 331 | 1.7 | 12.2 | 0.00 | 0.00 | 0.00 | 78 | 1008.5 |
| 20260506021020 | 64 | 355 | 2.6 | 12.2 | 0.00 | 0.00 | 0.00 | 78 | 1008.4 |
| 20260506020518 | 64 | 333 | 6.1 | 12.2 | 0.00 | 0.00 | 0.00 | 78 | 1008.2 |
| 20260506020039 | 64 | 350 | 0.9 | 5.2 | 0.00 | 0.00 | 0.00 | 78 | 1008.1 |
| 20260506015519 | 65 | 0 | 0.9 | 5.2 | 0.00 | 0.00 | 0.00 | 78 | 1008.0 |
| 20260506015019 | 65 | 319 | 1.7 | 6.1 | 0.00 | 0.00 | 0.00 | 78 | 1007.7 |
| 20260506014534 | 65 | 342 | 1.7 | 6.1 | 0.00 | 0.00 | 0.00 | 77 | 1007.6 |
| 20260506014018 | 65 | 333 | 0.0 | 5.2 | 0.00 | 0.00 | 0.00 | 77 | 1007.6 |
| 20260506013520 | 65 | 0 | 0.0 | 5.2 | 0.00 | 0.00 | 0.00 | 77 | 1007.5 |
| 20260506013040 | 65 | 328 | 1.7 | 7.0 | 0.00 | 0.00 | 0.00 | 77 | 1007.2 |
| 20260506012519 | 65 | 0 | 0.0 | 7.0 | 0.00 | 0.00 | 0.00 | 76 | 1007.0 |
| 20260506012021 | 65 | 326 | 0.9 | 7.0 | 0.00 | 0.00 | 0.00 | 76 | 1007.0 |
| 20260506011600 | 66 | 0 | 1.7 | 7.0 | 0.00 | 0.00 | 0.00 | 75 | 1006.9 |
| 20260506011019 | 66 | 331 | 0.9 | 11.3 | 0.00 | 0.00 | 0.00 | 76 | 1006.6 |
| 20260506010517 | 66 | 0 | 3.5 | 11.3 | 0.00 | 0.00 | 0.00 | 75 | 1006.4 |
| 20260506010037 | 66 | 269 | 3.5 | 13.9 | 0.00 | 0.00 | 0.00 | 75 | 1006.2 |
| 20260506005519 | 67 | 272 | 3.5 | 13.9 | 0.00 | 0.00 | 0.00 | 75 | 1005.9 |
| 20260506005016 | 67 | 337 | 0.9 | 10.4 | 0.00 | 0.00 | 0.00 | 74 | 1006.0 |
| 20260506004547 | 67 | 248 | 3.5 | 11.3 | 0.00 | 0.00 | 0.00 | 74 | 1006.1 |
| 20260506004018 | 67 | 269 | 5.2 | 12.2 | 0.00 | 0.00 | 0.00 | 73 | 1006.1 |
| 20260506003517 | 67 | 263 | 6.1 | 12.2 | 0.00 | 0.00 | 0.00 | 73 | 1006.2 |
| 20260506003032 | 68 | 267 | 6.1 | 11.3 | 0.00 | 0.00 | 0.00 | 73 | 1006.0 |
| 20260506002519 | 68 | 288 | 5.2 | 11.3 | 0.00 | 0.00 | 0.00 | 73 | 1006.1 |
| 20260506002017 | 69 | 288 | 4.3 | 11.3 | 0.00 | 0.00 | 0.00 | 74 | 1005.8 |
| 20260506001543 | 69 | 292 | 5.2 | 11.3 | 0.00 | 0.00 | 0.00 | 73 | 1005.6 |
| 20260506001018 | 69 | 271 | 4.3 | 9.6 | 0.00 | 0.00 | 0.00 | 73 | 1005.7 |
| 20260506000524 | 70 | 280 | 4.3 | 9.6 | 0.00 | 0.00 | 0.00 | 73 | 1005.7 |
| 20260506000108 | 70 | 275 | 3.5 | 9.6 | 0.00 | 0.00 | 0.00 | 73 | 1006.1 |
| 20260505235519 | 70 | 262 | 1.7 | 9.6 | 0.00 | 0.00 | 0.00 | 72 | 1005.9 |
| 20260505235017 | 71 | 307 | 2.6 | 9.6 | 0.00 | 0.00 | 0.00 | 72 | 1005.7 |
| 20260505234544 | 71 | 293 | 5.2 | 11.3 | 0.00 | 0.00 | 0.00 | 72 | 1005.7 |
| 20260505234020 | 71 | 248 | 7.0 | 11.3 | 0.00 | 0.00 | 0.00 | 71 | 1005.6 |
| 20260505233517 | 72 | 277 | 6.1 | 9.6 | 0.00 | 0.00 | 0.00 | 71 | 1005.7 |
| 20260505233034 | 72 | 300 | 3.5 | 10.4 | 0.00 | 0.00 | 0.00 | 71 | 1005.8 |
| 20260505232522 | 73 | 237 | 4.3 | 10.4 | 0.00 | 0.00 | 0.00 | 71 | 1005.7 |
| 20260505232019 | 73 | 290 | 7.0 | 10.4 | 0.00 | 0.00 | 0.00 | 70 | 1005.3 |
| 20260505231540 | 74 | 262 | 4.3 | 9.6 | 0.00 | 0.00 | 0.00 | 69 | 1005.4 |
| 20260505231019 | 74 | 248 | 2.6 | 9.6 | 0.00 | 0.00 | 0.00 | 69 | 1005.3 |
| 20260505230521 | 75 | 294 | 2.6 | 13.9 | 0.00 | 0.00 | 0.00 | 69 | 1005.4 |
| 20260505230059 | 75 | 273 | 6.1 | 13.9 | 0.00 | 0.00 | 0.00 | 69 | 1005.1 |
| 20260505225523 | 76 | 309 | 7.8 | 13.0 | 0.00 | 0.00 | 0.00 | 67 | 1005.3 |
| 20260505225017 | 76 | 267 | 5.2 | 13.0 | 0.00 | 0.00 | 0.00 | 67 | 1005.2 |
| 20260505224540 | 76 | 313 | 6.1 | 13.0 | 0.00 | 0.00 | 0.00 | 67 | 1005.3 |
| 20260505224016 | 77 | 275 | 4.3 | 12.2 | 0.00 | 0.00 | 0.00 | 67 | 1005.0 |
| 20260505223516 | 77 | 286 | 6.1 | 12.2 | 0.00 | 0.00 | 0.00 | 66 | 1005.0 |
| 20260505223032 | 78 | 248 | 6.1 | 13.0 | 0.00 | 0.00 | 0.00 | 66 | 1004.9 |
| 20260505222522 | 78 | 279 | 7.0 | 13.0 | 0.00 | 0.00 | 0.00 | 66 | 1004.9 |
| 20260505222017 | 79 | 306 | 2.6 | 10.4 | 0.00 | 0.00 | 0.00 | 64 | 1004.9 |
| 20260505221546 | 80 | 339 | 3.5 | 10.4 | 0.00 | 0.00 | 0.00 | 64 | 1004.8 |
| 20260505221017 | 80 | 270 | 2.6 | 10.4 | 0.00 | 0.00 | 0.00 | 64 | 1004.6 |
| 20260505220518 | 80 | 274 | 5.2 | 11.3 | 0.00 | 0.00 | 0.00 | 62 | 1004.5 |
| 20260505220040 | 81 | 267 | 4.3 | 11.3 | 0.00 | 0.00 | 0.00 | 61 | 1004.5 |
| 20260505215519 | 82 | 238 | 2.6 | 13.0 | 0.00 | 0.00 | 0.00 | 61 | 1004.5 |
| 20260505215020 | 82 | 217 | 2.6 | 13.0 | 0.00 | 0.00 | 0.00 | 62 | 1004.4 |
| 20260505214535 | 81 | 266 | 6.1 | 13.0 | 0.00 | 0.00 | 0.00 | 61 | 1004.2 |
| 20260505214019 | 81 | 271 | 3.5 | 9.6 | 0.00 | 0.00 | 0.00 | 63 | 1004.4 |
| 20260505213518 | 81 | 285 | 2.6 | 7.8 | 0.00 | 0.00 | 0.00 | 61 | 1004.4 |
| 20260505213037 | 81 | 238 | 0.9 | 12.2 | 0.00 | 0.00 | 0.00 | 61 | 1004.5 |
| 20260505212517 | 82 | 262 | 4.3 | 13.0 | 0.00 | 0.00 | 0.00 | 60 | 1004.7 |
| 20260505212018 | 82 | 286 | 7.0 | 13.0 | 0.00 | 0.00 | 0.00 | 60 | 1004.5 |
| 20260505211537 | 83 | 254 | 6.1 | 13.0 | 0.00 | 0.00 | 0.00 | 60 | 1004.5 |
| 20260505211017 | 83 | 288 | 5.2 | 13.0 | 0.00 | 0.00 | 0.00 | 58 | 1004.5 |
| 20260505210517 | 84 | 288 | 5.2 | 11.3 | 0.00 | 0.00 | 0.00 | 55 | 1004.5 |
| 20260505210041 | 84 | 193 | 2.6 | 10.4 | 0.00 | 0.00 | 0.00 | 55 | 1004.5 |
| 20260505205517 | 84 | 254 | 4.3 | 10.4 | 0.00 | 0.00 | 0.00 | 52 | 1004.7 |
| 20260505205019 | 83 | 292 | 1.7 | 12.2 | 0.00 | 0.00 | 0.00 | 54 | 1004.6 |
| 20260505204546 | 83 | 254 | 2.6 | 12.2 | 0.00 | 0.00 | 0.00 | 52 | 1004.6 |
| 20260505204019 | 84 | 235 | 4.3 | 12.2 | 0.00 | 0.00 | 0.00 | 50 | 1004.8 |
| 20260505203519 | 84 | 270 | 4.3 | 12.2 | 0.00 | 0.00 | 0.00 | 51 | 1004.6 |
| 20260505203047 | 84 | 301 | 4.3 | 12.2 | 0.00 | 0.00 | 0.00 | 49 | 1004.7 |
| 20260505202518 | 84 | 168 | 2.6 | 11.3 | 0.00 | 0.00 | 0.00 | 50 | 1004.8 |
| 20260505202016 | 85 | 236 | 2.6 | 11.3 | 0.00 | 0.00 | 0.00 | 50 | 1004.8 |
| 20260505201537 | 86 | 230 | 5.2 | 11.3 | 0.00 | 0.00 | 0.00 | 52 | 1004.8 |
| 20260505201018 | 86 | 238 | 0.0 | 5.2 | 0.00 | 0.00 | 0.00 | 59 | 1004.6 |
| 20260505200518 | 86 | 184 | 0.9 | 5.2 | 0.00 | 0.00 | 0.00 | 54 | 1004.8 |
| 20260505200036 | 87 | 0 | 0.0 | 9.6 | 0.00 | 0.00 | 0.00 | 56 | 1004.9 |
| 20260505195516 | 87 | 0 | 0.0 | 10.4 | 0.00 | 0.00 | 0.00 | 58 | 1004.8 |
| 20260505195018 | 86 | 180 | 1.7 | 10.4 | 0.00 | 0.00 | 0.00 | 54 | 1004.7 |
| 20260505194548 | 86 | 161 | 0.0 | 5.2 | 0.00 | 0.00 | 0.00 | 59 | 1004.8 |
| 20260505194019 | 87 | 173 | 1.7 | 7.0 | 0.00 | 0.00 | 0.00 | 59 | 1004.7 |
| 20260505193517 | 86 | 0 | 0.0 | 7.8 | 0.00 | 0.00 | 0.00 | 64 | 1004.7 |
| 20260505193037 | 86 | 157 | 2.6 | 9.6 | 0.00 | 0.00 | 0.00 | 64 | 1004.8 |
| 20260505192518 | 86 | 173 | 2.6 | 9.6 | 0.00 | 0.00 | 0.00 | 64 | 1004.9 |
| 20260505192017 | 86 | 177 | 2.6 | 9.6 | 0.00 | 0.00 | 0.00 | 67 | 1004.8 |
| 20260505191553 | 86 | 144 | 2.6 | 9.6 | 0.00 | 0.00 | 0.00 | 67 | 1004.6 |
| 20260505191024 | 86 | 163 | 2.6 | 9.6 | 0.00 | 0.00 | 0.00 | 66 | 1004.4 |
| 20260505190520 | 86 | 175 | 3.5 | 10.4 | 0.00 | 0.00 | 0.00 | 65 | 1004.6 |
| 20260505190040 | 85 | 155 | 4.3 | 10.4 | 0.00 | 0.00 | 0.00 | 66 | 1004.6 |
| 20260505185545 | 85 | 167 | 3.5 | 9.6 | 0.00 | 0.00 | 0.00 | 67 | 1004.6 |
| 20260505185021 | 84 | 148 | 3.5 | 9.6 | 0.00 | 0.00 | 0.00 | 68 | 1004.6 |
| 20260505184537 | 85 | 173 | 4.3 | 10.4 | 0.00 | 0.00 | 0.00 | 66 | 1004.7 |
| 20260505184017 | 84 | 173 | 4.3 | 10.4 | 0.00 | 0.00 | 0.00 | 67 | 1004.5 |
| 20260505183518 | 84 | 155 | 4.3 | 10.4 | 0.00 | 0.00 | 0.00 | 66 | 1004.6 |
| 20260505183035 | 84 | 221 | 3.5 | 10.4 | 0.00 | 0.00 | 0.00 | 66 | 1004.6 |
| 20260505182518 | 85 | 174 | 2.6 | 9.6 | 0.00 | 0.00 | 0.00 | 64 | 1004.6 |
| 20260505182017 | 85 | 174 | 2.6 | 9.6 | 0.00 | 0.00 | 0.00 | 65 | 1004.9 |
| 20260505181537 | 85 | 183 | 4.3 | 10.4 | 0.00 | 0.00 | 0.00 | 63 | 1004.7 |
| 20260505181017 | 85 | 170 | 4.3 | 10.4 | 0.00 | 0.00 | 0.00 | 63 | 1004.7 |
| 20260505180518 | 84 | 149 | 3.5 | 9.6 | 0.00 | 0.00 | 0.00 | 66 | 1004.7 |
| 20260505180043 | 83 | 156 | 3.5 | 10.4 | 0.00 | 0.00 | 0.00 | 69 | 1004.7 |
| 20260505175517 | 83 | 188 | 5.2 | 10.4 | 0.00 | 0.00 | 0.00 | 70 | 1004.8 |
| 20260505175018 | 83 | 156 | 4.3 | 11.3 | 0.00 | 0.00 | 0.00 | 69 | 1004.7 |
| 20260505174535 | 82 | 154 | 4.3 | 12.2 | 0.00 | 0.00 | 0.00 | 69 | 1004.8 |
| 20260505174017 | 82 | 154 | 5.2 | 12.2 | 0.00 | 0.00 | 0.00 | 70 | 1004.7 |
| 20260505173519 | 82 | 153 | 4.3 | 13.9 | 0.00 | 0.00 | 0.00 | 72 | 1004.8 |
| 20260505173035 | 81 | 141 | 5.2 | 13.9 | 0.00 | 0.00 | 0.00 | 73 | 1004.8 |
| 20260505172517 | 80 | 149 | 4.3 | 12.2 | 0.00 | 0.00 | 0.00 | 75 | 1004.8 |
| 20260505172016 | 80 | 128 | 3.5 | 12.2 | 0.00 | 0.00 | 0.00 | 76 | 1004.7 |
| 20260505171532 | 80 | 154 | 6.1 | 12.2 | 0.00 | 0.00 | 0.00 | 74 | 1004.7 |
| 20260505171017 | 80 | 142 | 4.3 | 11.3 | 0.00 | 0.00 | 0.00 | 75 | 1004.7 |
| 20260505170518 | 80 | 142 | 6.1 | 11.3 | 0.00 | 0.00 | 0.00 | 75 | 1004.6 |
| 20260505170040 | 79 | 148 | 3.5 | 10.4 | 0.00 | 0.00 | 0.00 | 77 | 1004.7 |
| 20260505165518 | 78 | 148 | 4.3 | 9.6 | 0.00 | 0.00 | 0.00 | 77 | 1004.7 |
| 20260505165019 | 78 | 149 | 4.3 | 10.4 | 0.00 | 0.00 | 0.00 | 77 | 1004.8 |
| 20260505164536 | 77 | 140 | 5.2 | 10.4 | 0.00 | 0.00 | 0.00 | 77 | 1004.8 |
| 20260505164018 | 77 | 148 | 3.5 | 8.7 | 0.00 | 0.00 | 0.00 | 77 | 1004.7 |
| 20260505163520 | 77 | 153 | 3.5 | 12.2 | 0.00 | 0.00 | 0.00 | 77 | 1004.7 |
| 20260505163037 | 77 | 131 | 4.3 | 12.2 | 0.00 | 0.00 | 0.00 | 78 | 1004.6 |
| 20260505162516 | 77 | 161 | 4.3 | 11.3 | 0.00 | 0.00 | 0.00 | 78 | 1004.7 |
| 20260505162022 | 77 | 146 | 5.2 | 11.3 | 0.00 | 0.00 | 0.00 | 78 | 1004.7 |
| 20260505161534 | 76 | 159 | 3.5 | 10.4 | 0.00 | 0.00 | 0.00 | 78 | 1004.5 |
| 20260505161018 | 76 | 175 | 3.5 | 13.0 | 0.00 | 0.00 | 0.00 | 79 | 1004.5 |
| 20260505160518 | 76 | 229 | 7.0 | 14.8 | 0.00 | 0.00 | 0.00 | 78 | 1004.5 |
| 20260505153040 | 76 | 162 | 4.3 | 14.8 | 0.00 | 0.00 | 0.00 | 79 | 1004.5 |
| 20260505152519 | 76 | 168 | 5.2 | 15.6 | 0.00 | 0.00 | 0.00 | 79 | 1004.3 |
| 20260505152024 | 76 | 181 | 7.0 | 15.6 | 0.00 | 0.00 | 0.00 | 78 | 1004.3 |
| 20260505151537 | 75 | 148 | 7.8 | 14.8 | 0.00 | 0.00 | 0.00 | 78 | 1004.3 |
| 20260505151023 | 75 | 167 | 6.1 | 15.6 | 0.00 | 0.00 | 0.00 | 79 | 1004.2 |
| 20260505150522 | 76 | 157 | 7.0 | 15.6 | 0.00 | 0.00 | 0.00 | 78 | 1004.2 |